Find Starlink 32301

NORAD ID: 61664 Int'l Des: 2024-193 Owner: SPXS Country: US Constellation: starlink operational
LEOCIRCULAR

現在のビュー

3D地球を読み込み中...

About Starlink 32301

Starlink 32301 (NORAD 61664) is a starlink constellation satellite (v2 mini) launched Oct 26, 2024 by SPXS of US. It operates in LEO, CIRCULAR orbit with a mass of 730.00 kg.

Starlink 32301について

説明を読み込み中...

次回通過

Passes for default location (London). Set your location on the main map for personalized predictions.

高度履歴

Loading altitude history...

軌道要素

1 61664U 24193D 26168.77317015 .00001490 00000-0 59739-4 0 9997
2 61664 53.1617 345.8663 0001168 82.7345 277.3789 15.31708935 91856
Epoch: Jun 17, 2026 • Age: 13 hours

現在のステータス

高度 473.9 km
速度 7.63 km/s
衛星直下点 41.18°N, 7.66°E
打ち上げ日 Oct 26, 2024
運用期間 1.6 years
タイプ internet

技術仕様

分類 Payload
質量 730.00 kg
乾燥質量 700.00 kg
総質量 730.00 kg
長さ 0.30 m
直径 4.10 m
スパン 29.00 m
形状 Box + pan
製造者 SPXS
バスタイプ Starlink V2M
フェーズステータス In Orbit
所有者/国 SPXS/US

Most Searched